Wind_Speed
3 4 5 5 5 6 6 6 7 7 7 8 9 10 10 11 11 11 12 11 11 11 11 10 9 9 9 8 8 8 8 8 8 7 7 7 7 7 7 7 7 7 7
1 2 2 3 4 4 5 5 5 6 6 7 7 8 9 10 10 11 11 11 11 11 10 9 9 8 8 7 7 7 7 7 6 6 6 6 6 6 6 6 6 6 6
1 2 2 3 3 4 5 5 5 5 6 6 7 8 8 9 10 10 10 10 10 10 10 9 9 8 8 7 7 6 6 6 6 5 5 5 5 5 5 4 4 4 4
3 3 3 3 4 5 5 5 5 6 6 7 7 7 8 9 9 9 10 10 9 9 10 9 9 8 8 7 7 6 5 5 5 4 4 4 4 4 4 4 3 3 3
4 4 4 4 5 5 5 6 6 6 7 7 7 8 8 9 9 9 9 9 9 9 9 10 9 9 9 8 7 6 5 4 4 4 3 3 3 3 3 2 2 2 2
6 6 6 6 6 6 6 7 7 7 8 8 8 9 9 9 10 10 10 10 10 10 10 10 10 10 10 9 8 7 5 4 4 4 3 2 2 2 2 1 1 1 1
7 7 7 7 7 7 8 8 9 9 9 10 10 10 11 11 11 11 11 11 11 12 12 11 11 11 11 11 10 9 8 6 5 5 5 4 3 2 1 1 2 1 1
8 8 8 8 9 9 10 11 11 11 12 12 12 13 13 13 13 13 13 13 13 13 13 13 13 13 13 13 12 12 10 9 7 7 7 7 6 5 4 4 3 3 3
9 10 10 11 11 12 12 13 13 14 14 14 15 15 16 16 16 16 16 16 16 15 15 16 16 15 15 15 15 14 13 12 11 10 10 9 9 8 8 7 6 5 5
11 12 13 14 14 14 15 15 15 16 16 17 17 18 18 18 18 18 18 18 18 18 18 18 18 18 18 18 17 17 16 15 15 14 13 13 11 11 10 10 9 8 8
14 15 15 16 16 16 16 16 17 17 18 18 19 20 20 20 20 21 21 20 20 20 20 20 20 20 20 20 20 20 19 19 18 17 17 16 15 14 13 12 12 12 11
17 17 17 17 17 17 17 18 18 18 18 19 20 20 21 22 22 22 22 22 22 21 21 21 21 21 21 22 22 22 22 21 21 20 19 19 18 17 15 15 15 15 14
21 20 19 18 18 19 19 19 19 19 19 20 21 22 22 22 22 23 23 23 23 23 22 22 22 22 22 23 24 24 23 23 23 23 22 22 21 20 19 19 19 18 17
23 22 21 21 21 21 21 20 21 21 21 21 22 23 23 23 24 24 23 23 23 23 23 23 23 23 22 22 22 23 23 23 24 23 24 24 24 23 22 22 21 21 21
24 23 24 25 24 23 23 22 23 23 23 23 23 24 24 25 25 25 24 24 23 23 23 23 22 22 20 19 19 19 19 20 21 21 21 22 23 25 25 24 24 24 24
26 26 26 27 27 26 25 25 25 25 24 25 25 26 25 25 25 24 24 23 23 22 22 21 20 19 18 17 17 17 17 18 18 19 20 21 22 24 26 27 27 26 26
31 29 28 28 28 29 28 28 27 26 26 26 27 27 26 25 25 24 23 23 22 21 21 20 18 16 16 15 15 15 15 16 16 17 17 19 20 22 24 25 27 27 27
36 33 31 30 30 31 31 30 29 29 28 28 28 27 26 25 25 23 23 23 22 21 20 18 17 16 16 15 14 14 14 15 15 15 16 17 18 20 22 24 26 27 28
40 36 32 33 32 33 33 31 30 29 29 29 29 28 26 25 25 23 23 23 22 21 20 19 18 17 16 15 14 15 14 15 15 16 16 17 18 19 21 23 25 26 27
38 38 35 36 33 34 31 28 29 29 29 28 28 27 26 26 26 24 24 23 22 21 20 19 19 18 17 16 15 15 15 15 16 16 17 18 19 19 20 22 24 26 27
33 33 28 29 31 29 26 27 28 28 27 28 27 27 27 27 26 25 24 23 22 21 21 20 19 19 18 17 16 16 15 15 15 16 17 18 19 20 20 21 23 25 27
32 29 28 28 28 25 25 27 28 28 27 26 26 26 27 26 26 26 26 24 23 22 22 21 21 20 20 18 17 17 16 16 16 17 17 18 19 20 20 21 22 24 25
31 30 30 28 28 26 27 29 29 28 27 26 26 25 26 27 26 26 26 25 24 24 23 23 23 22 22 21 20 19 17 17 18 18 18 19 19 20 21 21 22 23 24
30 30 30 29 28 28 28 30 29 28 28 28 27 27 28 27 27 27 26 26 26 26 26 26 25 25 24 24 23 22 21 19 19 19 20 20 20 21 22 22 22 23 24
30 30 30 30 30 30 30 31 31 30 31 31 31 31 30 30 29 28 28 29 28 28 28 28 29 28 28 27 27 26 24 23 21 20 21 22 22 22 22 22 22 23 24
32 32 33 33 34 35 36 35 35 36 36 36 35 35 35 34 34 33 32 32 31 31 32 32 32 32 31 30 30 29 28 27 25 24 23 23 23 23 23 23 23 23 23
Wind_Direction
76 67 61 56 50 45 42 39 35 29 21 16 12 9 8 8 8 7 7 6 8 11 14 17 21 27 32 37 42 45 49 54 59 65 69 71 74 76 79 84 89 94 97
43 30 34 32 27 23 21 20 18 14 8 3 360 358 357 357 357 357 357 358 358 360 3 5 8 13 17 21 27 34 41 47 53 58 64 68 70 72 74 77 82 87 91
318 329 344 353 357 357 356 357 356 353 351 348 346 345 344 345 346 347 347 348 348 348 349 351 353 356 0 5 11 17 26 34 41 48 55 61 64 66 67 69 73 79 85
288 295 307 322 331 333 336 337 336 334 334 333 331 330 330 331 333 335 336 336 337 337 338 339 339 341 343 348 354 0 8 17 23 32 45 53 56 62 61 57 61 67 74
276 280 289 303 313 316 317 318 317 317 317 316 317 318 318 317 318 320 322 323 323 324 325 326 326 325 326 328 331 338 345 354 358 1 21 43 47 54 55 49 47 48 58
275 278 285 295 303 305 303 304 304 304 303 303 304 307 308 308 307 308 309 310 310 310 311 312 312 312 312 312 312 315 318 319 322 321 330 351 12 23 23 15 20 25 39
277 280 284 292 295 296 295 295 295 296 296 295 294 296 297 297 297 297 299 300 298 297 297 299 299 299 299 299 299 298 299 295 289 286 290 294 294 296 297 287 277 282 290
279 283 288 291 291 292 291 292 292 291 290 289 289 289 289 288 288 288 289 290 290 288 288 288 288 288 288 289 289 288 286 284 279 273 274 274 269 263 260 261 263 261 256
280 286 290 293 293 293 292 291 291 288 286 285 286 285 285 284 284 284 283 283 283 282 282 282 281 280 280 280 281 281 281 279 275 271 270 270 266 262 259 258 258 259 257
281 286 289 291 293 293 291 291 290 289 287 285 285 284 282 282 282 282 281 281 282 281 279 279 279 277 276 275 275 276 276 275 272 270 268 266 263 259 257 257 256 256 256
280 284 287 289 290 290 290 290 288 288 287 285 284 283 282 281 281 281 281 281 282 282 280 280 279 278 275 274 273 272 272 272 271 268 266 263 260 257 255 256 255 255 254
280 283 285 287 288 289 290 291 289 289 289 288 286 284 283 283 282 283 282 282 283 282 280 280 279 278 276 274 271 269 270 270 270 266 263 261 259 257 255 254 255 255 254
281 281 282 285 288 291 293 294 293 293 293 290 288 287 286 285 284 285 285 285 286 284 282 280 279 277 276 275 271 266 267 265 266 264 261 260 260 258 256 255 255 255 255
279 280 282 285 287 290 293 295 296 296 295 293 291 290 288 286 286 286 286 286 284 284 283 280 279 277 275 272 271 267 267 266 263 264 262 259 258 258 256 256 255 255 254
274 277 281 282 285 287 291 293 294 293 293 292 290 288 286 285 285 284 284 283 281 280 279 278 279 277 274 271 270 270 269 268 266 265 265 262 260 256 254 255 255 255 255
272 273 275 279 282 282 284 287 289 290 289 288 286 285 282 280 280 281 281 281 280 279 279 278 277 274 271 269 268 268 268 267 267 266 266 265 262 260 257 257 255 254 253
268 268 267 271 276 278 279 281 283 285 285 284 284 282 283 280 281 280 280 280 279 278 277 275 271 268 266 264 264 265 265 268 267 269 271 268 264 262 259 259 257 256 253
267 266 260 263 266 275 275 274 276 279 282 282 282 283 282 282 282 280 281 280 277 275 274 270 267 263 262 261 262 262 264 267 269 273 276 274 271 267 265 263 260 257 255
271 268 261 261 264 268 268 266 271 274 278 280 280 283 283 283 283 281 280 279 276 272 270 268 266 264 262 262 264 266 265 267 270 274 277 278 277 275 272 267 261 260 259
282 276 271 266 266 265 264 267 270 273 275 279 281 282 283 284 283 281 279 276 273 269 266 265 265 262 260 263 266 268 271 271 272 275 279 280 282 282 279 271 264 261 260
291 286 282 278 268 272 273 280 281 278 279 280 280 282 282 282 281 281 276 272 269 266 264 262 262 260 259 260 264 267 272 274 277 279 282 285 286 286 283 278 270 265 262
300 294 297 296 291 283 282 286 286 285 283 279 278 281 282 281 278 278 274 268 265 264 262 261 260 259 257 257 260 264 269 275 279 281 284 287 289 289 286 283 276 271 266
305 308 308 303 301 298 294 293 291 290 286 284 280 282 282 281 281 278 272 267 265 262 259 258 258 258 258 258 258 261 266 273 281 285 287 289 290 291 290 287 281 275 270
304 307 308 307 304 301 297 296 295 292 288 287 284 283 282 279 278 276 272 268 264 262 259 257 258 258 258 260 260 262 266 270 275 282 288 291 293 293 292 290 286 279 273
303 304 304 303 301 299 298 297 295 291 290 288 286 283 280 277 276 274 272 270 264 261 260 258 258 257 258 259 261 264 267 269 271 276 283 289 293 294 294 292 289 282 276
303 303 303 301 299 297 296 294 292 289 289 287 284 282 279 276 275 272 270 269 265 263 261 260 259 259 258 259 261 264 267 270 272 275 278 283 289 292 294 293 290 285 278
Height
5925 5924 5923 5922 5921 5920 5919 5919 5918 5918 5917 5916 5915 5914 5913 5912 5910 5909 5907 5906 5905 5903 5902 5900 5899 5898 5897 5896 5895 5895 5894 5893 5893 5892 5892 5891 5891 5891 5891 5890 5890 5890 5890
5925 5924 5923 5922 5921 5921 5920 5919 5918 5918 5917 5916 5915 5914 5913 5912 5910 5909 5907 5906 5905 5903 5902 5900 5899 5898 5897 5897 5896 5895 5894 5894 5893 5893 5892 5892 5891 5891 5891 5891 5891 5890 5890
5925 5924 5923 5922 5922 5921 5920 5919 5918 5917 5917 5916 5915 5914 5912 5911 5910 5908 5907 5905 5904 5903 5902 5900 5899 5898 5897 5896 5896 5895 5894 5894 5893 5892 5892 5892 5892 5891 5891 5891 5891 5891 5891
5924 5924 5923 5922 5921 5920 5920 5919 5918 5917 5916 5915 5914 5913 5912 5910 5909 5908 5906 5905 5903 5902 5901 5900 5899 5898 5897 5896 5895 5895 5894 5893 5893 5892 5892 5892 5892 5891 5891 5892 5892 5892 5891
5924 5923 5922 5921 5921 5920 5919 5918 5917 5916 5915 5913 5912 5911 5910 5909 5908 5907 5905 5904 5903 5901 5900 5899 5898 5897 5896 5895 5894 5894 5893 5893 5892 5891 5891 5891 5891 5891 5891 5891 5891 5891 5891
5923 5922 5921 5920 5919 5918 5917 5916 5915 5914 5913 5912 5910 5909 5908 5907 5906 5905 5904 5902 5901 5900 5899 5898 5896 5895 5894 5894 5893 5893 5892 5892 5891 5890 5890 5890 5890 5890 5890 5890 5891 5891 5891
5922 5921 5920 5919 5918 5917 5916 5915 5913 5912 5911 5909 5908 5907 5906 5905 5904 5902 5901 5900 5899 5898 5897 5896 5895 5894 5893 5892 5891 5891 5891 5891 5890 5890 5889 5889 5889 5889 5889 5889 5889 5890 5890
5920 5919 5918 5917 5916 5915 5913 5912 5911 5910 5908 5907 5905 5904 5903 5901 5900 5899 5898 5897 5896 5896 5895 5893 5892 5891 5890 5890 5889 5889 5888 5888 5888 5888 5888 5887 5887 5887 5887 5888 5888 5888 5888
5918 5917 5916 5915 5914 5912 5911 5909 5908 5906 5905 5903 5902 5900 5899 5898 5896 5895 5895 5894 5893 5892 5891 5890 5889 5888 5887 5886 5886 5886 5885 5885 5886 5885 5885 5885 5885 5885 5885 5886 5886 5886 5887
5916 5915 5914 5913 5911 5909 5908 5906 5904 5902 5901 5899 5897 5896 5894 5893 5892 5891 5890 5889 5888 5888 5887 5886 5885 5884 5884 5883 5882 5882 5882 5882 5882 5882 5882 5882 5882 5882 5883 5883 5883 5884 5884
5914 5912 5911 5909 5908 5906 5904 5902 5900 5898 5896 5895 5893 5891 5890 5888 5887 5886 5885 5884 5883 5883 5882 5881 5881 5880 5879 5879 5878 5878 5877 5877 5877 5877 5878 5878 5878 5879 5879 5880 5880 5881 5881
5911 5909 5907 5906 5904 5902 5900 5898 5896 5894 5892 5890 5888 5886 5884 5883 5882 5881 5880 5879 5878 5877 5876 5876 5875 5875 5874 5874 5873 5873 5872 5872 5872 5872 5873 5873 5874 5875 5875 5875 5876 5877 5878
5907 5905 5903 5902 5900 5898 5896 5894 5892 5889 5887 5885 5883 5881 5879 5877 5876 5875 5874 5873 5872 5871 5871 5870 5870 5869 5869 5868 5867 5867 5867 5867 5867 5867 5867 5868 5869 5869 5870 5871 5872 5873 5873
5902 5900 5898 5897 5895 5893 5891 5889 5887 5885 5882 5880 5878 5875 5873 5872 5870 5870 5869 5868 5867 5866 5865 5864 5864 5863 5862 5862 5861 5861 5861 5861 5861 5861 5861 5862 5863 5864 5865 5865 5866 5867 5868
5897 5895 5893 5891 5890 5888 5885 5883 5882 5879 5877 5875 5872 5870 5868 5866 5865 5864 5863 5862 5861 5860 5859 5858 5858 5857 5857 5856 5856 5856 5855 5855 5855 5856 5855 5856 5857 5857 5857 5858 5859 5861 5862
5891 5889 5887 5885 5883 5881 5879 5877 5875 5873 5871 5869 5866 5864 5861 5860 5859 5858 5857 5856 5855 5854 5853 5853 5853 5852 5852 5851 5851 5851 5850 5850 5850 5850 5850 5850 5851 5851 5851 5852 5853 5853 5855
5880 5878 5877 5875 5874 5872 5871 5869 5868 5866 5864 5861 5859 5855 5854 5853 5852 5851 5851 5850 5849 5849 5848 5848 5848 5848 5847 5847 5847 5846 5846 5846 5845 5845 5845 5844 5845 5845 5845 5846 5846 5847 5848
5869 5865 5863 5861 5861 5861 5861 5860 5859 5857 5856 5854 5852 5848 5846 5845 5845 5844 5844 5844 5843 5843 5843 5843 5843 5843 5842 5842 5842 5842 5842 5841 5840 5840 5840 5839 5839 5840 5839 5839 5840 5840 5841
5857 5853 5849 5849 5850 5849 5849 5849 5849 5849 5848 5847 5845 5842 5839 5838 5837 5838 5838 5837 5837 5837 5837 5837 5837 5838 5838 5838 5838 5837 5837 5836 5836 5835 5835 5834 5834 5833 5833 5832 5833 5833 5834
5849 5845 5842 5840 5839 5839 5838 5838 5840 5840 5839 5838 5837 5835 5833 5832 5831 5831 5831 5831 5831 5831 5831 5832 5832 5832 5832 5833 5833 5832 5832 5831 5831 5830 5829 5829 5828 5827 5827 5826 5826 5826 5827
5841 5837 5833 5831 5830 5829 5829 5829 5830 5830 5830 5829 5829 5827 5827 5826 5825 5825 5824 5824 5825 5825 5826 5826 5826 5827 5827 5828 5828 5828 5827 5827 5826 5825 5824 5823 5822 5821 5821 5820 5819 5819 5820
5835 5831 5829 5829 5824 5819 5822 5824 5824 5823 5822 5821 5822 5821 5820 5820 5819 5818 5817 5818 5819 5819 5820 5821 5821 5821 5822 5823 5823 5823 5823 5823 5821 5820 5819 5818 5817 5816 5815 5813 5813 5813 5813
5834 5830 5826 5824 5821 5819 5820 5820 5818 5817 5816 5815 5815 5814 5813 5812 5812 5812 5811 5811 5811 5812 5813 5814 5814 5815 5815 5816 5817 5818 5818 5818 5817 5815 5814 5813 5811 5810 5809 5808 5807 5806 5806
5830 5826 5822 5819 5818 5816 5815 5813 5811 5810 5809 5809 5808 5807 5806 5805 5805 5805 5804 5804 5804 5804 5805 5806 5807 5808 5809 5809 5810 5811 5812 5812 5812 5811 5809 5807 5806 5804 5803 5802 5801 5800 5799
5824 5820 5816 5814 5812 5810 5808 5806 5804 5803 5802 5801 5799 5798 5798 5797 5797 5797 5796 5795 5795 5796 5797 5798 5799 5800 5801 5802 5803 5803 5804 5805 5805 5805 5804 5802 5801 5799 5797 5796 5794 5793 5793
5817 5813 5810 5808 5805 5803 5800 5798 5796 5794 5793 5791 5790 5789 5788 5788 5788 5787 5787 5787 5786 5787 5787 5788 5790 5791 5792 5794 5795 5795 5796 5797 5797 5798 5798 5797 5795 5793 5791 5790 5788 5787 5786